Date String (YYYY-MM-DD hh:mm:ss) UTC,Instrument flags,Ambient pressure (hPa),Sample flow (lpm),Bypass flow (lpm),Sample temperature (°C),Ambient temperature (°C),ASC tube jacket temperature (°C),LED temperature (°C),Box temperature (°C),Sample RH (%),Mass concentration (μg/m³),Mass concentration (μg/m³)
DateTimeUTC,F1_M11,P_M11,Q1_M11,Q2_M11,T1_M11,T2_M11,T3_M11,T4_M11,T5_M11,U1_M11,X0_M11,X2_M11
2021-08-11 07:00:00,FlowAlarm;OPCInstrumentWarning,0827.9,5.01,0.00,29.6,28.3,00.0,38.7,31.5,14.6,0047.50,0032.74
2021-08-11 07:01:00,FlowAlarm;OPCInstrumentWarning,0827.9,5.00,0.00,29.5,26.6,00.0,38.6,31.0,14.6,0046.91,0032.86
2021-08-11 07:02:00,FlowAlarm;OPCInstrumentWarning,0827.8,5.00,0.00,29.4,26.3,00.0,38.6,30.9,14.6,0046.24,0032.99
2021-08-11 07:03:00,FlowAlarm;OPCInstrumentWarning,0827.8,5.00,0.00,29.3,26.6,00.0,38.6,31.0,14.7,0046.24,0033.12
2021-08-11 07:04:00,FlowAlarm;OPCInstrumentWarning,0827.8,4.99,0.00,29.3,27.0,00.0,38.6,31.0,14.7,0046.37,0033.25
2021-08-11 07:05:00,FlowAlarm;OPCInstrumentWarning,0827.8,5.02,0.00,29.3,27.3,00.0,38.5,31.1,14.7,0046.38,0033.29
2021-08-11 07:06:00,FlowAlarm;OPCInstrumentWarning,0827.8,4.99,0.00,29.3,27.6,00.0,38.5,31.2,14.7,0046.49,0033.37
2021-08-11 07:07:00,FlowAlarm;OPCInstrumentWarning,0827.8,5.01,0.00,29.3,27.8,00.0,38.5,31.2,14.7,0046.34,0033.37
2021-08-11 07:08:00,FlowAlarm;OPCInstrumentWarning,0827.7,4.98,0.00,29.3,28.0,00.0,38.5,31.3,14.7,0046.03,0033.34
2021-08-11 07:09:00,FlowAlarm;OPCInstrumentWarning,0827.7,5.01,0.00,29.3,28.1,00.0,38.5,31.3,14.6,0045.10,0033.32
2021-08-11 07:10:00,FlowAlarm;OPCInstrumentWarning,0827.7,5.00,0.00,29.4,28.3,00.0,38.5,31.3,14.5,0044.04,0033.28
2021-08-11 07:11:00,FlowAlarm;OPCInstrumentWarning,0827.7,4.99,0.00,29.4,28.4,00.0,38.6,31.4,14.6,0043.33,0033.31
2021-08-11 07:12:00,FlowAlarm;OPCInstrumentWarning,0827.7,5.01,0.00,29.4,28.5,00.0,38.6,31.4,14.6,0043.19,0033.39
2021-08-11 07:13:00,FlowAlarm;OPCInstrumentWarning,0827.7,4.99,0.00,29.5,28.5,00.0,38.6,31.5,14.5,0043.28,0033.40
2021-08-11 07:14:00,FlowAlarm;OPCInstrumentWarning,0827.7,5.01,0.00,29.5,28.6,00.0,38.6,31.5,14.4,0043.24,0033.37
2021-08-11 07:15:00,FlowAlarm;OPCInstrumentWarning,0827.7,5.01,0.00,29.6,28.7,00.0,38.6,31.6,14.4,0043.18,0033.34
2021-08-11 07:16:00,FlowAlarm;OPCInstrumentWarning,0827.7,5.00,0.00,29.6,28.7,00.0,38.7,31.6,14.4,0043.22,0033.35
2021-08-11 07:17:00,FlowAlarm;OPCInstrumentWarning,0827.7,5.01,0.00,29.6,28.8,00.0,38.7,31.6,14.3,0043.26,0033.34
2021-08-11 07:18:00,FlowAlarm;OPCInstrumentWarning,0827.7,4.99,0.00,29.6,27.7,00.0,38.7,31.3,14.4,0043.24,0033.38
2021-08-11 07:19:00,FlowAlarm;OPCInstrumentWarning,0827.7,5.00,0.00,29.5,26.4,00.0,38.7,31.0,14.4,0043.55,0033.41
2021-08-11 07:20:00,FlowAlarm;OPCInstrumentWarning,0827.7,5.00,0.00,29.4,26.5,00.0,38.6,31.0,14.4,0044.06,0033.48
2021-08-11 07:21:00,FlowAlarm;OPCInstrumentWarning,0827.7,5.01,0.00,29.3,26.8,00.0,38.6,31.0,14.4,0044.71,0033.60
2021-08-11 07:22:00,FlowAlarm;OPCInstrumentWarning,0827.7,5.00,0.00,29.3,27.2,00.0,38.6,31.1,14.3,0045.26,0033.68
2021-08-11 07:23:00,FlowAlarm;OPCInstrumentWarning,0827.8,5.00,0.00,29.3,27.5,00.0,38.5,31.1,14.5,0045.68,0033.69
2021-08-11 07:24:00,FlowAlarm;OPCInstrumentWarning,0827.7,5.00,0.00,29.3,27.7,00.0,38.5,31.2,14.5,0045.55,0033.66
2021-08-11 07:25:00,FlowAlarm;OPCInstrumentWarning,0827.7,5.01,0.00,29.3,27.9,00.0,38.5,31.2,14.4,0045.62,0033.67
2021-08-11 07:26:00,FlowAlarm;OPCInstrumentWarning,0827.7,5.00,0.00,29.3,28.1,00.0,38.5,31.3,14.4,0045.75,0033.75
2021-08-11 07:27:00,FlowAlarm;OPCInstrumentWarning,0827.7,4.98,0.00,29.4,28.2,00.0,38.5,31.3,14.3,0045.82,0033.78
2021-08-11 07:28:00,FlowAlarm;OPCInstrumentWarning,0827.7,5.00,0.00,29.4,28.3,00.0,38.6,31.4,14.3,0045.99,0033.83
2021-08-11 07:29:00,FlowAlarm;OPCInstrumentWarning,0827.7,5.02,0.00,29.4,28.4,00.0,38.6,31.4,14.4,0046.42,0033.93
2021-08-11 07:30:00,FlowAlarm;OPCInstrumentWarning,0827.7,4.98,0.00,29.5,28.5,00.0,38.6,31.5,14.4,0046.24,0034.01
2021-08-11 07:31:00,FlowAlarm;OPCInstrumentWarning,0827.7,5.01,0.00,29.5,28.6,00.0,38.6,31.5,14.3,0045.75,0034.03
2021-08-11 07:32:00,FlowAlarm;OPCInstrumentWarning,0827.7,4.99,0.00,29.6,28.7,00.0,38.6,31.5,14.3,0045.34,0034.05
2021-08-11 07:33:00,FlowAlarm;OPCInstrumentWarning,0827.8,5.01,0.00,29.6,28.7,00.0,38.7,31.5,14.3,0044.85,0034.06
2021-08-11 07:34:00,FlowAlarm;OPCInstrumentWarning,0827.8,4.99,0.00,29.6,28.8,00.0,38.7,31.6,14.3,0044.46,0034.04
2021-08-11 07:35:00,FlowAlarm;OPCInstrumentWarning,0827.8,5.00,0.00,29.7,28.8,00.0,38.7,31.6,14.2,0044.84,0034.10
2021-08-11 07:36:00,FlowAlarm;OPCInstrumentWarning,0827.8,4.99,0.00,29.7,28.0,00.0,38.7,31.4,14.1,0045.23,0034.23
2021-08-11 07:37:00,FlowAlarm;OPCInstrumentWarning,0827.8,4.99,0.00,29.5,26.0,00.0,38.7,30.9,14.2,0045.78,0034.34
2021-08-11 07:38:00,FlowAlarm;OPCInstrumentWarning,0827.8,5.01,0.00,29.4,25.5,00.0,38.6,30.8,14.2,0046.39,0034.44
2021-08-11 07:39:00,FlowAlarm;OPCInstrumentWarning,0827.8,5.00,0.00,29.2,25.8,00.0,38.6,30.7,14.3,0046.29,0034.53
2021-08-11 07:40:00,FlowAlarm;OPCInstrumentWarning,0827.8,5.01,0.00,29.1,26.3,00.0,38.5,30.8,14.5,0046.13,0034.63
2021-08-11 07:41:00,FlowAlarm;OPCInstrumentWarning,0827.7,4.99,0.00,29.1,26.7,00.0,38.5,30.9,14.5,0046.21,0034.72
2021-08-11 07:42:00,FlowAlarm;OPCInstrumentWarning,0827.8,4.98,0.00,29.1,27.1,00.0,38.4,30.9,14.5,0046.33,0034.80
2021-08-11 07:43:00,FlowAlarm;OPCInstrumentWarning,0827.8,5.00,0.00,29.1,27.4,00.0,38.4,31.0,14.4,0046.76,0034.78
2021-08-11 07:44:00,FlowAlarm;OPCInstrumentWarning,0827.7,5.00,0.00,29.1,27.6,00.0,38.4,31.0,14.2,0047.01,0034.84
2021-08-11 07:45:00,FlowAlarm;OPCInstrumentWarning,0827.8,4.99,0.00,29.1,27.8,00.0,38.4,31.1,14.2,0047.18,0034.97
2021-08-11 07:46:00,FlowAlarm;OPCInstrumentWarning,0827.8,5.01,0.00,29.2,28.0,00.0,38.4,31.1,14.3,0047.22,0035.10
2021-08-11 07:47:00,FlowAlarm;OPCInstrumentWarning,0827.8,5.00,0.00,29.2,28.1,00.0,38.4,31.2,14.2,0047.03,0035.12
2021-08-11 07:48:00,FlowAlarm;OPCInstrumentWarning,0827.8,5.00,0.00,29.2,28.2,00.0,38.4,31.2,14.2,0046.86,0035.16
2021-08-11 07:49:00,FlowAlarm;OPCInstrumentWarning,0827.8,5.00,0.00,29.3,28.3,00.0,38.5,31.2,14.1,0046.77,0035.21
2021-08-11 07:50:00,FlowAlarm;OPCInstrumentWarning,0827.8,4.99,0.00,29.3,28.4,00.0,38.5,31.3,14.1,0046.99,0035.28
2021-08-11 07:51:00,FlowAlarm;OPCInstrumentWarning,0827.8,5.01,0.00,29.4,28.4,00.0,38.5,31.3,14.1,0047.36,0035.27
2021-08-11 07:52:00,FlowAlarm;OPCInstrumentWarning,0827.8,5.00,0.00,29.4,28.5,00.0,38.5,31.4,14.2,0047.59,0035.32
2021-08-11 07:53:00,FlowAlarm;OPCInstrumentWarning,0827.8,5.01,0.00,29.4,28.6,00.0,38.5,31.4,14.2,0047.83,0035.34
2021-08-11 07:54:00,FlowAlarm;OPCInstrumentWarning,0827.8,5.01,0.00,29.5,28.6,00.0,38.5,31.5,14.0,0047.55,0035.46
2021-08-11 07:55:00,FlowAlarm;OPCInstrumentWarning,0827.8,4.99,0.00,29.5,28.7,00.0,38.6,31.5,13.8,0047.52,0035.55
2021-08-11 07:56:00,FlowAlarm;OPCInstrumentWarning,0827.8,5.01,0.00,29.6,28.7,00.0,38.6,31.5,13.4,0047.54,0035.60
2021-08-11 07:57:00,FlowAlarm;OPCInstrumentWarning,0827.8,5.01,0.00,29.6,28.8,00.0,38.6,31.6,13.5,0047.65,0035.70
2021-08-11 07:58:00,FlowAlarm;OPCInstrumentWarning,0827.8,4.99,0.00,29.6,28.8,00.0,38.6,31.6,13.6,0047.96,0035.77
2021-08-11 07:59:00,FlowAlarm;OPCInstrumentWarning,0827.8,5.00,0.00,29.7,28.8,00.0,38.7,31.6,13.6,0048.64,0035.80
